H1 CPF 2 NER 2024 1 16 9 016 01 glonass139 H2 1808601 9139 43687 2024 1 16 0 0 0 2024 1 19 23 45 0 900 1 1 0 0 0 1 H9 10 0 60325 0.00000 0 -1970100.968 23124457.153 -10576932.523 10 0 60325 900.00000 0 -2160967.573 24239615.868 -7637973.102 10 0 60325 1800.00000 0 -2195668.936 25002276.761 -4550599.337 10 0 60325 2700.00000 0 -2121917.999 25383560.802 -1374814.340 10 0 60325 3600.00000 0 -1992054.831 25366953.016 1827678.268 10 0 60325 4500.00000 0 -1860582.113 24948994.423 4994676.000 10 0 60325 5400.00000 0 -1781612.235 24139445.327 8064687.389 10 0 60325 6300.00000 0 -1806334.745 22960913.467 10978126.241 10 0 60325 7200.00000 0 -1980611.792 21447963.118 13678466.816 10 0 60325 8100.00000 0 -2342803.594 19645742.858 16113337.508 10 0 60325 9000.00000 0 -2921916.051 17608189.789 18235532.057 10 0 60325 9900.00000 0 -3736148.858 15395885.429 20003919.146 10 0 60325 10800.00000 0 -4791905.580 13073652.731 21384233.387 10 0 60325 11700.00000 0 -6083307.691 10707994.101 22349733.218 10 0 60325 12600.00000 0 -7592233.575 8364476.537 22881713.683 10 0 60325 13500.00000 0 -9288881.643 6105171.893 22969864.963 10 0 60325 14400.00000 0 -11132834.991 3986257.679 22612470.204 10 0 60325 15300.00000 0 -13074584.266 2055877.043 21816439.140 10 0 60325 16200.00000 0 -15057446.394 352345.726 20597176.826 10 0 60325 17100.00000 0 -17019800.407 -1097220.553 18978289.729 10 0 60325 18000.00000 0 -18897548.199 -2277802.182 16991134.318 10 0 60325 18900.00000 0 -20626698.525 -3186858.796 14674216.110 10 0 60325 19800.00000 0 -22145967.085 -3834184.265 12072449.987 10 0 60325 20700.00000 0 -23399284.400 -4241240.315 9236295.296 10 0 60325 21600.00000 0 -24338106.691 -4439997.293 6220781.778 10 0 60325 22500.00000 0 -24923432.731 -4471331.357 3084444.700 10 0 60325 23400.00000 0 -25127441.642 -4383046.116 -111810.361 10 0 60325 24300.00000 0 -24934682.255 -4227602.698 -3305891.052 10 0 60325 25200.00000 0 -24342763.280 -4059654.788 -6435726.863 10 0 60325 26100.00000 0 -23362514.523 -3933493.543 -9440478.859 10 0 60325 27000.00000 0 -22017611.612 -3900511.316 -12261726.465 10 0 60325 27900.00000 0 -20343679.342 -4006792.378 -14844607.673 10 0 60325 28800.00000 0 -18386910.767 -4290933.547 -17138889.934 10 0 60325 29700.00000 0 -16202259.560 -4782187.886 -19099950.516 10 0 60325 30600.00000 0 -13851281.085 -5499010.933 -20689647.039 10 0 60325 31500.00000 0 -11399712.341 -6448071.877 -21877061.113 10 0 60325 32400.00000 0 -8914891.734 -7623772.407 -22639100.700 10 0 60325 33300.00000 0 -6463126.202 -9008294.528 -22960949.604 10 0 60325 34200.00000 0 -4107115.246 -10572176.319 -22836355.515 10 0 60325 35100.00000 0 -1903538.880 -12275392.342 -22267751.144 10 0 60325 36000.00000 0 99090.542 -14068894.227 -21266206.202 10 0 60325 36900.00000 0 1862223.767 -15896547.461 -19851211.167 10 0 60325 37800.00000 0 3358643.360 -17697383.755 -18050296.996 10 0 60325 38700.00000 0 4573349.676 -19408074.956 -15898498.073 10 0 60325 39600.00000 0 5503928.279 -20965524.961 -13437668.779 10 0 60325 40500.00000 0 6160384.845 -22309471.026 -10715666.927 10 0 60325 41400.00000 0 6564455.993 -23384985.293 -7785419.988 10 0 60325 42300.00000 0 6748426.532 -24144771.365 -4703892.485 10 0 60325 43200.00000 0 6753504.486 -24551159.378 -1530974.957 10 0 60325 44100.00000 0 6627823.832 -24577715.663 1671683.518 10 0 60325 45000.00000 0 6424160.596 -24210399.300 4841876.004 10 0 60325 45900.00000 0 6197459.931 -23448217.056 7918047.782 10 0 60325 46800.00000 0 6002279.581 -22303349.328 10840491.967 10 0 60325 47700.00000 0 5890258.498 -20800741.981 13552507.122 10 0 60325 48600.00000 0 5907718.020 -18977181.393 16001494.448 10 0 60325 49500.00000 0 6093497.137 -16879891.532 18139973.470 10 0 60325 50400.00000 0 6477113.342 -14564711.721 19926496.961 10 0 60325 51300.00000 0 7077326.618 -12093930.992 21326448.057 10 0 60325 52200.00000 0 7901167.154 -9533868.857 22312704.892 10 0 60325 53100.00000 0 8943467.880 -6952302.594 22866160.695 10 0 60325 54000.00000 0 10186921.900 -4415847.162 22976089.982 10 0 60325 54900.00000 0 11602663.080 -1987395.529 22640354.346 10 0 60325 55800.00000 0 13151346.345 276275.409 21865444.129 10 0 60325 56700.00000 0 14784683.534 2326635.125 20666355.201 10 0 60325 57600.00000 0 16447371.718 4125178.693 19066302.910 10 0 60325 58500.00000 0 18079334.434 5644782.048 17096278.208 10 0 60325 59400.00000 0 19618183.151 6870577.906 14794453.794 10 0 60325 60300.00000 0 21001796.710 7800316.682 12205450.905 10 0 60325 61200.00000 0 22170911.283 8444198.089 9379480.174 10 0 60325 62100.00000 0 23071612.433 8824181.146 6371372.467 10 0 60325 63000.00000 0 23657624.627 8972802.129 3239517.982 10 0 60325 63900.00000 0 23892301.557 8931550.755 44733.944 10 0 60325 64800.00000 0 23750232.966 8748873.560 -3150917.090 10 0 60325 65700.00000 0 23218399.512 8477889.347 -6285335.190 10 0 60325 66600.00000 0 22296826.116 8173913.870 -9297593.256 10 0 60325 67500.00000 0 20998705.347 7891899.135 -12129125.485 10 0 60325 68400.00000 0 19349984.679 7683896.412 -14724870.362 10 0 60325 69300.00000 0 17388434.113 7596651.083 -17034345.444 10 0 60325 70200.00000 0 15162232.577 7669431.841 -19012632.606 10 0 60325 71100.00000 0 12728131.684 7932186.849 -20621254.368 10 0 60325 72000.00000 0 10149273.239 8404105.504 -21828924.100 10 0 60325 72900.00000 0 7492751.281 9092647.296 -22612155.593 10 0 60325 73800.00000 0 4827019.998 9993079.463 -22955720.250 10 0 60325 74700.00000 0 2219255.244 11088543.633 -22852943.165 10 0 60325 75600.00000 0 -267220.867 12350649.344 -22305832.503 10 0 60325 76500.00000 0 -2575345.598 13740570.126 -21325039.740 10 0 60325 77400.00000 0 -4656451.891 15210596.618 -19929651.588 10 0 60325 78300.00000 0 -6472047.162 16706081.905 -18146817.585 10 0 60325 79200.00000 0 -7995161.392 18167697.704 -16011220.514 10 0 60325 80100.00000 0 -9211209.378 19533906.735 -13564399.844 10 0 60325 81000.00000 0 -10118332.390 20743547.417 -10853941.340 10 0 60325 81900.00000 0 -10727206.391 21738422.150 -7932548.602 10 0 60325 82800.00000 0 -11060326.372 22465780.082 -4857014.823 10 0 60325 83700.00000 0 -11150798.460 22880589.695 -1687115.038 10 0 60325 84600.00000 0 -11040692.220 22947505.298 1515559.155 10 0 60325 85500.00000 0 -10779024.006 22642444.460 4688799.262 10 0 60326 0.00000 0 -10419457.812 21953709.905 7770989.848 10 0 60326 900.00000 0 -10017821.551 20882608.184 10702306.542 10 0 60326 1800.00000 0 -9629544.969 19443540.052 13425874.426 10 0 60326 2700.00000 0 -9307127.262 17663557.493 15888869.798 10 0 60326 3600.00000 0 -9097742.059 15581406.694 18043540.033 10 0 60326 4500.00000 0 -9041080.647 13246096.506 19848123.823 10 0 60326 5400.00000 0 -9167524.304 10715051.904 21267654.384 10 0 60326 6300.00000 0 -9496722.530 8051928.860 22274630.835 10 0 60326 7200.00000 0 -10036636.889 5324180.912 22849545.539 10 0 60326 8100.00000 0 -10783090.680 2600477.636 22981257.961 10 0 60326 9000.00000 0 -11719843.578 -51918.857 22667208.349 10 0 60326 9900.00000 0 -12819188.599 -2569711.686 21913467.434 10 0 60326 10800.00000 0 -14043047.051 -4895956.350 20734621.210 10 0 60326 11700.00000 0 -15344516.475 -6982179.417 19153492.728 10 0 60326 12600.00000 0 -16669807.659 -8790141.859 17200705.767 10 0 60326 13500.00000 0 -17960490.444 -10293174.768 14914098.079 10 0 60326 14400.00000 0 -19155955.017 -11477032.709 12337994.716 10 0 60326 15300.00000 0 -20195985.934 -12340229.860 9522354.704 10 0 60326 16200.00000 0 -21023341.112 -12893845.539 6521806.873 10 0 60326 17100.00000 0 -21586227.349 -13160807.864 3394592.998 10 0 60326 18000.00000 0 -21840567.858 -13174686.132 201438.504 10 0 60326 18900.00000 0 -21751965.730 -12978043.279 -2995627.343 10 0 60326 19800.00000 0 -21297279.732 -12620418.405 -6134478.644 10 0 60326 20700.00000 0 -20465745.006 -12156025.102 -9154103.519 10 0 60326 21600.00000 0 -19259590.324 -11641263.453 -11995794.158 10 0 60326 22500.00000 0 -17694124.764 -11132151.526 -14604292.552 10 0 60326 23400.00000 0 -15797289.022 -10681785.624 -16928869.073 10 0 60326 24300.00000 0 -13608689.196 -10337937.344 -18924312.516 10 0 60326 25200.00000 0 -11178152.613 -10140889.567 -20551812.114 10 0 60326 26100.00000 0 -8563865.391 -10121603.380 -21779714.225 10 0 60326 27000.00000 0 -5830168.907 -10300293.807 -22584139.054 10 0 60326 27900.00000 0 -3045106.518 -10685474.867 -22949445.522 10 0 60326 28800.00000 0 -277822.298 -11273514.653 -22868535.412 10 0 60326 29700.00000 0 2404080.401 -12048719.520 -22342991.030 10 0 60326 30600.00000 0 4937111.184 -12983944.215 -21383043.809 10 0 60326 31500.00000 0 7264289.165 -14041702.549 -20007374.463 10 0 60326 32400.00000 0 9337264.758 -15175732.105 -18242748.548 10 0 60326 33300.00000 0 11118079.170 -16332947.305 -16123494.411 10 0 60326 34200.00000 0 12580489.125 -17455698.657 -13690833.568 10 0 60326 35100.00000 0 13710802.644 -18484243.010 -10992076.541 10 0 60326 36000.00000 0 14508192.212 -19359320.595 -8079699.764 10 0 60326 36900.00000 0 14984473.557 -20024730.003 -5010321.754 10 0 60326 37800.00000 0 15163360.870 -20429792.224 -1843598.739 10 0 60326 38700.00000 0 15079231.267 -20531599.534 1358938.364 10 0 60326 39600.00000 0 14775451.985 -20296954.071 4535082.511 10 0 60326 40500.00000 0 14302342.195 -19703914.078 7623160.831 10 0 60326 41400.00000 0 13714856.536 -18742882.429 10563232.772 10 0 60326 42300.00000 0 13070089.051 -17417191.380 13298252.520 10 0 60326 43200.00000 0 12424703.457 -15743158.743 15775173.097 10 0 60326 44100.00000 0 11832398.456 -13749612.831 17945970.935 10 0 60326 45000.00000 0 11341515.016 -11476905.703 19768571.446 10 0 60326 45900.00000 0 10992886.197 -8975455.484 21207658.329 10 0 60326 46800.00000 0 10818019.700 -6303877.874 22235351.718 10 0 60326 47700.00000 0 10837689.188 -3526783.880 22831742.806 10 0 60326 48600.00000 0 11060993.230 -712334.328 22985275.386 10 0 60326 49500.00000 0 11484921.183 2070348.456 22692967.473 10 0 60326 50400.00000 0 12094444.264 4753805.560 21960469.067 10 0 60326 51300.00000 0 12863128.227 7274795.423 20801954.952 10 0 60326 52200.00000 0 13754242.425 9576672.082 19239854.377 10 0 60326 53100.00000 0 14722319.352 11611490.100 17304422.274 10 0 60326 54000.00000 0 15715099.931 13341749.784 15033159.626 10 0 60326 54900.00000 0 16675783.538 14741710.894 12470093.316 10 0 60326 55800.00000 0 17545488.756 15798220.804 9664928.626 10 0 60326 56700.00000 0 18265821.692 16511023.104 6672090.055 10 0 60326 57600.00000 0 18781443.793 16892534.228 3549668.514 10 0 60326 58500.00000 0 19042530.718 16967097.909 358295.074 10 0 60326 59400.00000 0 19007018.043 16769749.237 -2840036.898 10 0 60326 60300.00000 0 18642538.247 16344540.791 -5983178.133 10 0 60326 61200.00000 0 17927966.231 15742501.896 -9010034.474 10 0 60326 62100.00000 0 16854506.992 15019317.664 -11861758.456 10 0 60326 63000.00000 0 15426278.303 14232826.352 -14482897.706 10 0 60326 63900.00000 0 13660362.589 13440441.326 -16822477.289 10 0 60326 64800.00000 0 11586324.536 12696607.027 -18834994.537 10 0 60326 65700.00000 0 9245213.476 12050396.842 -20481306.761 10 0 60326 66600.00000 0 6688091.310 11543354.661 -21729394.436 10 0 60326 67500.00000 0 3974146.581 11207671.457 -22554985.061 10 0 60326 68400.00000 0 1168472.613 11064773.974 -22942025.707 10 0 60326 69300.00000 0 -1660398.311 11124385.123 -22882995.180 10 0 60326 70200.00000 0 -4443102.672 11384095.701 -22379049.924 10 0 60326 71100.00000 0 -7112087.413 11829465.498 -21440000.914 10 0 60326 72000.00000 0 -9604176.200 12434649.481 -20084122.022 10 0 60326 72900.00000 0 -11862954.110 13163522.618 -18337793.539 10 0 60326 73800.00000 0 -13840872.085 13971255.865 -16234987.667 10 0 60326 74700.00000 0 -15500984.218 14806276.722 -13816605.922 10 0 60326 75600.00000 0 -16818246.253 15612531.470 -11129681.248 10 0 60326 76500.00000 0 -17780322.085 16331953.385 -8226460.390 10 0 60326 77400.00000 0 -18387865.644 16907032.385 -5163384.563 10 0 60326 78300.00000 0 -18654267.668 17283377.212 -1999988.515 10 0 60326 79200.00000 0 -18604879.358 17412161.546 1202260.194 10 0 60326 80100.00000 0 -18275746.967 17252350.276 4381158.611 10 0 60326 81000.00000 0 -17711911.929 16772611.574 7474978.748 10 0 60326 81900.00000 0 -16965349.354 15952833.714 10423666.950 10 0 60326 82800.00000 0 -16092632.764 14785182.326 13170008.665 10 0 60326 83700.00000 0 -15152424.222 13274653.252 15660735.956 10 0 60326 84600.00000 0 -14202896.000 11439097.340 17847556.479 10 0 60326 85500.00000 0 -13299192.468 9308715.666 19688084.336 10 0 60327 0.00000 0 -12491038.889 6925045.922 21146655.342 10 0 60327 900.00000 0 -11820596.781 4339480.205 22195012.369 10 0 60327 1800.00000 0 -11320656.456 1611378.344 22812846.448 10 0 60327 2700.00000 0 -11013240.555 -1194150.079 22988186.511 10 0 60327 3600.00000 0 -10908677.680 -4008700.918 22717628.779 10 0 60327 4500.00000 0 -11005184.142 -6763168.444 22006402.547 10 0 60327 5400.00000 0 -11288971.184 -9390369.635 20868271.017 10 0 60327 6300.00000 0 -11734873.221 -11827592.199 19325268.810 10 0 60327 7200.00000 0 -12307470.918 -14018961.663 17407280.766 10 0 60327 8100.00000 0 -12962662.343 -15917530.213 15151469.429 10 0 60327 9000.00000 0 -13649616.591 -17487001.250 12601561.465 10 0 60327 9900.00000 0 -14313028.121 -18703018.396 9807006.021 10 0 60327 10800.00000 0 -14895577.184 -19553965.667 6822020.597 10 0 60327 11700.00000 0 -15340492.718 -20041245.698 3704542.361 10 0 60327 12600.00000 0 -15594109.430 -20179024.657 515104.984 10 0 60327 13500.00000 0 -15608310.658 -19993454.828 -2684337.218 10 0 60327 14400.00000 0 -15342753.129 -19521407.849 -5831614.836 10 0 60327 15300.00000 0 -14766778.636 -18808772.265 -8865554.693 10 0 60327 16200.00000 0 -13860930.763 -17908387.572 -11727172.894 10 0 60327 17100.00000 0 -12618011.327 -16877702.271 -14360825.846 10 0 60327 18000.00000 0 -11043630.603 -15776255.215 -16715296.272 10 0 60327 18900.00000 0 -9156226.800 -14663086.889 -18744792.734 10 0 60327 19800.00000 0 -6986552.548 -13594190.175 -20409842.930 10 0 60327 20700.00000 0 -4576648.704 -12620108.339 -21678063.281 10 0 60327 21600.00000 0 -1978347.249 -11783781.565 -22524789.876 10 0 60327 22500.00000 0 748635.209 -11118732.759 -22933558.630 10 0 60327 23400.00000 0 3538934.647 -10647668.880 -22896425.482 10 0 60327 24300.00000 0 6324015.096 -10381556.435 -22414120.566 10 0 60327 25200.00000 0 9034779.982 -10319209.731 -21496033.454 10 0 60327 26100.00000 0 11604211.197 -10447408.873 -20160029.776 10 0 60327 27000.00000 0 13969926.618 -10741542.096 -18432102.747 10 0 60327 27900.00000 0 16076550.117 -11166744.963 -16345866.246 10 0 60327 28800.00000 0 17877795.849 -11679487.937 -13941899.244 10 0 60327 29700.00000 0 19338180.523 -12229544.863 -11266954.228 10 0 60327 30600.00000 0 20434292.910 -12762258.796 -8373045.074 10 0 60327 31500.00000 0 21155568.338 -13221008.877 -5316432.257 10 0 60327 32400.00000 0 21504536.792 -13549773.511 -2156525.442 10 0 60327 33300.00000 0 21496535.350 -13695680.904 1045274.824 10 0 60327 34200.00000 0 21158898.261 -13611438.623 4226773.272 10 0 60327 35100.00000 0 20529659.959 -13257538.968 7326190.193 10 0 60327 36000.00000 0 19655826.746 -12604146.546 10283361.914 10 0 60327 36900.00000 0 18591290.905 -11632587.926 13040907.836 10 0 60327 37800.00000 0 17394475.828 -10336380.175 15545341.303 10 0 60327 38700.00000 0 16125811.722 -8721754.493 17748102.956 10 0 60327 39600.00000 0 14845148.217 -6807652.428 19606496.884 10 0 60327 40500.00000 0 13609212.487 -4625194.155 21084512.078 10 0 60327 41400.00000 0 12469219.091 -2216640.230 22153514.042 10 0 60327 42300.00000 0 11468731.231 366110.796 22792793.964 10 0 60327 43200.00000 0 10641862.216 3063427.441 22989965.571 10 0 60327 44100.00000 0 10011891.690 5810175.064 22741202.603 10 0 60327 45000.00000 0 9590353.807 8538179.009 22051312.658 10 0 60327 45900.00000 0 9376634.907 11178820.189 20933646.051 10 0 60327 46800.00000 0 9358097.105 13665656.691 19409841.228 10 0 60327 47700.00000 0 9510722.389 15936963.682 17509411.141 10 0 60327 48600.00000 0 9800250.148 17938087.078 15269177.879 10 0 60327 49500.00000 0 10183760.441 19623513.876 12732565.681 10 0 60327 50400.00000 0 10611636.559 20958573.429 9948765.169 10 0 60327 51300.00000 0 11029824.387 21920699.072 6971784.287 10 0 60327 52200.00000 0 11382293.280 22500197.572 3859403.768 10 0 60327 53100.00000 0 11613594.465 22700494.279 672057.108 10 0 60327 54000.00000 0 11671408.465 22537843.797 -2528343.233 10 0 60327 54900.00000 0 11508973.243 22040518.395 -5679610.456 10 0 60327 55800.00000 0 11087289.534 21247508.432 -8720494.981 10 0 60327 56700.00000 0 10377009.042 20206789.729 -11591878.917 10 0 60327 57600.00000 0 9359924.473 18973231.093 -14237929.619 10 0 60327 58500.00000 0 8029997.130 17606230.479 -16607189.381 10 0 60327 59400.00000 0 6393877.308 16167179.669 -18653579.628 10 0 60327 60300.00000 0 4470894.138 14716864.466 -20337299.826 10 0 60327 61200.00000 0 2292513.875 13312910.059 -21625603.480 10 0 60327 62100.00000 0 -98711.949 12007379.038 -22493436.159 10 0 60327 63000.00000 0 -2650665.765 10844622.972 -22923923.269 10 0 60327 63900.00000 0 -5303588.119 9859477.598 -22908698.228 10 0 60327 64800.00000 0 -7992327.421 9075877.064 -22448064.867 10 0 60327 65700.00000 0 -10648822.294 8505944.880 -21550990.954 10 0 60327 66600.00000 0 -13204713.714 8149599.204 -20234933.045 10 0 60327 67500.00000 0 -15593978.708 7994688.303 -18525496.005 10 0 60327 68400.00000 0 -17755476.345 8017649.740 -16455933.706 10 0 60327 69300.00000 0 -19635300.297 8184664.750 -14066500.535 10 0 60327 70200.00000 0 -21188840.234 8453258.335 -11403666.230 10 0 60327 71100.00000 0 -22382466.494 8774276.760 -8519209.321 10 0 60327 72000.00000 0 -23194768.087 9094158.155 -5469206.969 10 0 60327 72900.00000 0 -23617292.953 9357399.481 -2312941.137 10 0 60327 73800.00000 0 -23654760.279 9509114.823 888257.266 10 0 60327 74700.00000 0 -23324736.903 9497576.080 4072203.276 10 0 60327 75600.00000 0 -22656792.447 9276628.005 7177068.063 10 0 60327 76500.00000 0 -21691169.727 8807874.919 10142580.508 10 0 60327 77400.00000 0 -20477027.260 8062546.199 12911196.467 10 0 60327 78300.00000 0 -19070328.567 7022961.392 15429212.978 10 0 60327 79200.00000 0 -17531467.462 5683532.705 17647805.925 10 0 60327 80100.00000 0 -15922729.326 4051262.186 19523971.424 10 0 60327 81000.00000 0 -14305694.767 2145712.084 21021353.296 10 0 60327 81900.00000 0 -12738694.116 -1551.171 22110941.389 10 0 60327 82800.00000 0 -11274418.687 -2348017.079 22771627.979 10 0 60327 83700.00000 0 -9957787.908 -4841752.127 22990612.300 10 0 60327 84600.00000 0 -8824160.486 -7423319.761 22763645.936 10 0 60327 85500.00000 0 -7897963.449 -10028020.652 22095114.728 10 0 60328 0.00000 0 -7191795.467 -12588361.350 20997955.803 10 0 60328 900.00000 0 -6706040.809 -15036651.395 19493410.435 10 0 60328 1800.00000 0 -6429010.389 -17307618.744 17610618.616 10 0 60328 2700.00000 0 -6337602.279 -19340940.328 15386060.503 10 0 60328 3600.00000 0 -6398454.708 -21083579.768 12862856.111 10 0 60328 4500.00000 0 -6569542.507 -22491836.719 10089935.474 10 0 60328 5400.00000 0 -6802149.808 -23533022.364 7121094.697 10 0 60328 6300.00000 0 -7043135.704 -24186691.130 4013955.614 10 0 60328 7200.00000 0 -7237397.025 -24445376.934 828848.951 10 0 60328 8100.00000 0 -7330423.795 -24314803.006 -2372357.399 10 0 60328 9000.00000 0 -7270838.731 -23813556.273 -5527462.039 10 0 60328 9900.00000 0 -7012812.571 -22972239.892 -8575141.854 10 0 60328 10800.00000 0 -6518252.085 -21832139.543 -11456147.854 10 0 60328 11700.00000 0 -5758667.056 -20443459.611 -14114461.254 10 0 60328 12600.00000 0 -4716636.094 -18863203.633 -16498386.746 10 0 60328 13500.00000 0 -3386808.007 -17152788.295 -18561561.288 10 0 60328 14400.00000 0 -1776395.099 -15375491.476 -20263858.540 10 0 60328 15300.00000 0 94863.776 -13593841.663 -21572171.172 10 0 60328 16200.00000 0 2195270.245 -11867058.377 -22461055.908 10 0 60328 17100.00000 0 4482241.090 -10248650.836 -22913228.858 10 0 60328 18000.00000 0 6903846.733 -8784275.330 -22919901.672 10 0 60328 18900.00000 0 9400750.328 -7509940.620 -22480952.159 10 0 60328 19800.00000 0 11908467.355 -6450635.988 -21604926.128 10 0 60328 20700.00000 0 14359852.198 -5619438.702 -20308870.491 10 0 60328 21600.00000 0 16687708.534 -5017137.411 -18618000.775 10 0 60328 22500.00000 0 18827415.132 -4632386.306 -16565209.450 10 0 60328 23400.00000 0 20719457.788 -4442382.512 -14190424.492 10 0 60328 24300.00000 0 22311761.942 -4414037.085 -11539830.613 10 0 60328 25200.00000 0 23561728.811 -4505589.190 -8664968.287 10 0 60328 26100.00000 0 24437890.096 -4668594.280 -5621728.257 10 0 60328 27000.00000 0 24921112.438 -4850201.253 -2469261.361 10 0 60328 27900.00000 0 25005301.619 -4995621.404 731174.765 10 0 60328 28800.00000 0 24697577.633 -5050683.842 3917409.164 10 0 60328 29700.00000 0 24017914.024 -4964368.531 7027567.522 10 0 60328 30600.00000 0 22998257.460 -4691209.143 10001274.713 10 0 60328 31500.00000 0 21681165.286 -4193463.585 12780826.200 10 0 60328 32400.00000 0 20118018.989 -3442960.050 15312305.479 10 0 60328 33300.00000 0 18366889.032 -2422540.270 17546626.036 10 0 60328 34200.00000 0 16490140.894 -1127038.713 19440477.943 10 0 60328 35100.00000 0 14551882.536 436243.999 20957161.361 10 0 60328 36000.00000 0 12615359.807 2247593.990 22067291.568 10 0 60328 36900.00000 0 10740408.046 4275461.988 22749362.621 10 0 60328 37800.00000 0 8981065.455 6477543.000 22990159.537 10 0 60328 38700.00000 0 7383446.815 8802313.964 22785011.624 10 0 60328 39600.00000 0 5983965.145 11190966.571 22137882.436 10 0 60328 40500.00000 0 4807974.393 13579656.160 21061294.742 10 0 60328 41400.00000 0 3868888.731 15901974.451 19576091.728 10 0 60328 42300.00000 0 3167814.376 18091544.398 17711038.599 10 0 60328 43200.00000 0 2693708.530 20084630.220 15502271.592 10 0 60328 44100.00000 0 2424058.232 21822654.664 12992604.235 10 0 60328 45000.00000 0 2326050.177 23254518.990 10230703.470 10 0 60328 45900.00000 0 2358181.967 24338629.066 7270150.859 10 0 60328 46800.00000 0 2472246.656 25044542.814 4168406.480 10 0 60328 47700.00000 0 2615606.543 25354169.792 985695.325 10 0 60328 48600.00000 0 2733659.745 25262472.263 -2216162.271 10 0 60328 49500.00000 0 2772394.732 24777637.955 -5374953.268 10 0 60328 50400.00000 0 2680924.021 23920716.822 -8429283.850 10 0 60328 51300.00000 0 2413888.953 22724736.801 -11319776.572 10 0 60328 52200.00000 0 1933632.755 21233335.468 -13990228.897 10 0 60328 53100.00000 0 1212048.868 19498965.023 -16388710.041 10 0 60328 54000.00000 0 232025.163 17580745.947 -18468574.352 10 0 60328 54900.00000 0 -1011578.179 15542059.442 -20189371.266 10 0 60328 55800.00000 0 -2511459.707 13447979.686 -21517633.955 10 0 60328 56700.00000 0 -4247937.681 11362653.455 -22427531.382 10 0 60328 57600.00000 0 -6189539.747 9346736.691 -22901371.186 10 0 60328 58500.00000 0 -8294097.777 7454995.044 -22929943.766 10 0 60328 59400.00000 0 -10510303.094 5734168.292 -22512701.078 10 0 60328 60300.00000 0 -12779657.997 4221187.312 -21657766.743 10 0 60328 61200.00000 0 -15038742.781 2941817.424 -20381777.347 10 0 60328 62100.00000 0 -17221704.151 1909783.881 -18709557.957 10 0 60328 63000.00000 0 -19262861.525 1126415.054 -16673638.075 10 0 60328 63900.00000 0 -21099322.604 580817.052 -14313617.328 10 0 60328 64800.00000 0 -22673499.018 250571.154 -11675393.165 10 0 60328 65700.00000 0 -23935416.963 102923.362 -8810265.532 10 0 60328 66600.00000 0 -24844726.099 96414.698 -5773936.131 10 0 60328 67500.00000 0 -25372322.712 182882.147 -2625421.946 10 0 60328 68400.00000 0 -25501519.260 309744.580 574095.459 10 0 60328 69300.00000 0 -25228711.557 422475.940 3762461.973 10 0 60328 70200.00000 0 -24563516.010 467160.167 6877760.663 10 0 60328 71100.00000 0 -23528371.698 393019.012 9859515.244 10 0 60328 72000.00000 0 -22157624.546 154805.206 12649863.572 10 0 60328 72900.00000 0 -20496132.549 -285040.627 15194678.273 10 0 60328 73800.00000 0 -18597450.941 -954560.782 17444612.905 10 0 60328 74700.00000 0 -16521673.562 -1870856.509 19356053.686 10 0 60328 75600.00000 0 -14333020.704 -3039129.594 20891958.961 10 0 60328 76500.00000 0 -12097273.947 -4452230.269 22022570.879 10 0 60328 77400.00000 0 -9879164.464 -6090731.081 22725986.280 10 0 60328 78300.00000 0 -7739822.894 -7923524.422 22988576.530 10 0 60328 79200.00000 0 -5734395.925 -9908919.815 22805248.796 10 0 60328 80100.00000 0 -3909927.771 -11996196.273 22179544.089 10 0 60328 81000.00000 0 -2303593.482 -14127546.266 21123570.317 10 0 60328 81900.00000 0 -941356.533 -16240331.570 19657771.426 10 0 60328 82800.00000 0 162894.444 -18269558.150 17810536.654 10 0 60328 83700.00000 0 1007694.713 -20150467.983 15617656.768 10 0 60328 84600.00000 0 1603824.500 -21821140.508 13121637.001 10 0 60328 85500.00000 0 1973610.241 -23224995.614 10370879.158 99